Location: Lecco
(45.8566°N, 9.3977°E)
Time: 14:00:27
(UTC+02:00)

S-56A Canister/Altair - Pass Details

Date: 29 July 2019
Orbit: 633 x 2499 km, 38.9° (Epoch: 20 August)

Event Time Altitude Azimuth Distance (km) Brightness Sun altitude
Rises 05:27:56 0° 223° (SW) 4,089 - -5.8°
Exits shadow 05:29:15 - 220° (SW) 3,706 10.4 -5.6°
Reaches altitude 10° 05:30:33 10° 216° (SW) 3,352 10.2 -5.4°
Maximum altitude 05:38:36 41° 149° (SSE) 2,335 10.0 -4.2°
Drops below altitude 10° 05:50:02 10° 87° (E) 4,746 12.8 -2.5°
Sets 05:54:30 0° 81° (E) 5,949 13.7 -1.9°
